Tracking 21082 objects as of 5-Aug-2020
HD Live streaming from Space Station
objects crossing your sky now

TOPEX/POSEIDON

Track TOPEX/POSEIDON now!
10-day predictions
TOPEX/POSEIDON is classified as:


NORAD ID: 22076
Int'l Code: 1992-052A
Perigee: 1,338.4 km
Apogee: 1,350.6 km
Inclination: 66.0 °
Period: 112.4 minutes
Semi major axis: 7715 km
RCS: 8.6832 m2 (large)
Launch date: August 10, 1992
Source: United States (US)
Launch site: FRENCH GUIANA (FRGUI)
aabbcc
Your satellite tracking list
Your tracking list is empty




NASA's NSSDC Master Catalog

Two Line Element Set (TLE):
1 22076U 92052A   20217.51891442 -.00000032  00000-0  12442-3 0  9993
2 22076  66.0387 263.6482 0007874 267.2913 239.0535 12.81027754309080
Source of the keplerian elements: AFSPC